Location: Ash Swamp
(41.5170°N, 74.6157°W)
Time: 02:31:25
(UTC+00:00)

COSMOS 2428 - Pass Details

Date: 14 July 2020
Orbit: 844 x 859 km, 70.9° (Epoch: 14 August)

Event Time Altitude Azimuth Distance (km) Brightness Sun altitude
Rises 01:24:17 0° 214° (SSW) 3,388 5.8 -8.9°
Reaches altitude 10° 01:26:46 10° 218° (SW) 2,457 5.1 -9.3°
Maximum altitude 01:32:19 59° 297° (WNW) 974 3.4 -10.0°
Drops below altitude 10° 01:37:56 10° 17° (NNE) 2,476 5.5 -10.8°
Sets 01:40:26 0° 21° (NNE) 3,417 6.2 -11.2°
